Regional Weather Roundup
Issued by NWS Newport/Morehead, NC

Current Version | Previous Version | Graphics & Text | Print | Product List | Glossary Off
Versions: 1 2 3 4 5 6 7 8 9 10 11 12 13 14 15 16 17 18 19 20 21 22 23 24 25 26 27 28 29 30 31 32 33 34 35 36 37 38 39 40 41 42 43 44 45 46 47 48 49 50
000 ASUS42 KMHX 110024 RWRMHX WEATHER ROUNDUP FOR EASTERN NORTH CAROLINA NATIONAL WEATHER SERVICE NEWPORT/MOREHEAD CITY NC 700 PM EST SAT DEC 10 2016 NOTE: "FAIR" INDICATES FEW OR NO CLOUDS BELOW 12,000 FEET WITH NO SIGNIFICANT WEATHER AND/OR OBSTRUCTIONS TO VISIBILITY NCZ015>017-031-032-045>047-102-103-110100- NORTH COAST CITY SKY/WX TMP DP RH WIND PRES REMARKS EDENTON CLEAR 32 23 69 CALM 30.52R ELIZABETH CITY CLEAR 32 18 56 W3 30.51R KITTY HAWK CLEAR 36 24 63 NW3 30.49S MANTEO CLEAR 37 23 57 NW3 30.51R $$ NCZ045>047-081-094-103-104-110100- CENTRAL COAST CITY SKY/WX TMP DP RH WIND PRES REMARKS FRISCO CLEAR 39 21 48 NW5 30.50R $$ NCZ095-097-098-100-101-110100- SOUTHERN COAST CITY SKY/WX TMP DP RH WIND PRES REMARKS BEAUFORT CLEAR 38 23 55 N6 30.51R CEDAR ISLAND NOT AVBL JACKSONVILLE CLEAR 33 21 61 CALM 30.51R PINEY ISLAND CLEAR N/A N/A N/A NW9 30.51R WILMINGTON CLEAR 33 25 72 CALM 30.51R $$ NCZ011>013-027>030-043-044-078>080-089-090>093-098-110100- COASTAL PLAIN CITY SKY/WX TMP DP RH WIND PRES REMARKS AHOSKIE PTCLDY 28 20 72 CALM 30.52R CLINTON CLEAR 31 23 71 CALM 30.51S ELIZABETHTOWN CLEAR 32 24 73 CALM 30.50S GOLDSBORO CLEAR 32 17 54 CALM 30.49R GREENVILLE CLEAR 30 23 74 CALM 30.50S HAVELOCK CLEAR 37 19 48 NW6 30.52R KENANSVILLE CLEAR 27 19 74 CALM 30.51S KINSTON CLEAR 28 23 80 CALM 30.51S NEW BERN CLEAR 30 21 69 S3 30.52R RICHLANDS CLEAR 29 24 82 CALM 30.52R ROCKY MOUNT CLEAR 29 19 66 CALM 30.51R WASHINGTON CLEAR 29 19 66 CALM 30.52R WHITEVILLE CLEAR 33 27 79 CALM 30.50S $$ AMZ130-135-150-152-154-156-158-170-250-252-270-ANZ085-086-088-633-658-670-110100- MARINE OBSERVATIONS STATION/POSITION TIME TEMP WIND PRES WAVE SWELL AIR SEA DIR/SP/G HT/PER HT/PER (UTC) (F) (DEG/KT/KT) (MB) (FT/S) (FT/S) CHESAPEAKE LIGHT NOT AVBL 64 E VA BEACH 2350 40 58 300/ 16/ 23 1032.1 3/ 6 2/12 DUCK 0000 38 51 320/ 10/ 13 1032.4 2 E DUCK NOT AVBL OREGON INLET 0000 38 49 290/ 5/ 8 1033.0 13E OREGON INLT NOT AVBL HATTERAS CG 0000 41 52 310/ 11/ 14 1032.3 DIAMOND BUOY 2350 44 77 330/ 12/ 17 1032.3 4/ 9 3/ 9 CAPE LOOKOUT 0000 42 330/ 10/ 12 1032.6 BEAUFORT LAB 0000 40 49 320/ 6/ 9 1032.1 30 SE NEW RVR IN 0008 46 68 350/ 10/ 14 1032.6 30 SE NEW RVR IN 2343 68 N/A 2/ 9 27 SE WRIGHTSVLE 0008 46 69 360/ 8/ 16 1032.4 5 SE WRIGHTSVLE 0008 41 60 360/ 10/ 14 1032.8 225 S CAPE HAT 2350 61 73 360/ 10/ 16 1029.7 4/ 9 3/ 9 41 SE CHARLESTON 2350 51 73 20/ 12/ 16 1031.7 3/ 5 2/ 9 $$

USA.gov is the U.S. government's official web portal to all federal, state and local government web resources and services.